Regional Weather Roundup
Issued by NWS Green Bay, WI

Home | Current Version | Previous Version | Graphics & Text | Print | Product List | Glossary Off
Versions: 1 2 3 4 5 6 7 8 9 10 11 12 13 14 15 16 17 18 19 20 21 22 23 24 25 26 27 28 29 30 31 32 33 34 35 36 37 38 39 40 41 42 43 44 45 46 47 48 49 50

000
ASUS43 KGRB 021300
RWRGRB

NORTH-CENTRAL AND NORTHEAST WISCONSIN REGIONAL WEATHER ROUNDUP
NATIONAL WEATHER SERVICE GREEN BAY WI
800 AM CDT SUN AUG 02 2015

WIZ005-009-010>012-018-019-021400-
NORTH CENTRAL WISCONSIN

CITY           SKY/WX    TMP DP  RH WIND       PRES   REMARKS
IRONWOOD       CLOUDY    64  59  82 S3        29.63R
MANITOWISH WTR NOT AVBL
ARBOR VITAE    NOT AVBL
EAGLE RIVER    NOT AVBL
LAND O LAKES   NOT AVBL
RHINELANDER    TSTM      63  60  90 NW8G25    29.72R
PHILLIPS       MOSUNNY   61  61  98 NW3       29.63F
ANTIGO         NOT AVBL
TOMAHAWK       NOT AVBL
MERRILL        NOT AVBL
$$

WIZ013-073-021400-
NORTHEAST WISCONSIN

CITY           SKY/WX    TMP DP  RH WIND       PRES   REMARKS
IRON MOUNTAIN  CLOUDY    67  62  84 NW9       29.66F
MARINETTE      PTSUNNY   70  63  78 W7        29.66R
$$

WIZ017-030-035>037-045-021400-
CENTRAL WISCONSIN

CITY           SKY/WX    TMP DP  RH WIND       PRES   REMARKS
MEDFORD        NOT AVBL
WAUSAU         PTSUNNY   70  67  90 NW5       29.70S
MOSINEE        CLOUDY    70  68  94 SW6       29.73R
MARSHFIELD     CLOUDY    71  66  84 W8        29.73R
WISC RAPIDS    PTSUNNY   74  66  76 W9        29.73R
STEVENS POINT  NOT AVBL
WAUPACA        NOT AVBL
SHAWANO        NOT AVBL
CLINTONVILLE   MOSUNNY   70  66  88 SW7       29.69F
$$

WIZ038-039-048-051-021400-
FOX VALLEY

CITY           SKY/WX    TMP DP  RH WIND       PRES   REMARKS
NWS GREEN BAY  MOSUNNY   74  69  85 SW10      29.70S
APPLETON       PTSUNNY   73  68  83 SW13      29.71F
OSHKOSH        MOSUNNY   73  67  81 SW12      29.71F
FOND DU LAC    MOSUNNY   74  69  85 SW10G24   29.72F
$$

WIZ022-050-052-021400-
EAST CENTRAL WISCONSIN

CITY           SKY/WX    TMP DP  RH WIND       PRES   REMARKS
STURGEON BAY   PTSUNNY   75  66  73 SW15G23   29.71R
MANITOWOC      NOT AVBL
SHEBOYGAN      PTSUNNY   74  69  85 SW10      29.73F
$$

LMZ563-521-522-541>543-021400-
LAKESHORE

STATION/POSITION TIME  TEMP    WIND        PRES    VSBY  WAVE
                       AIR SEA DIR/SP/G                  HT/PER
                 (UTC) (F)     (DEG/KT/KT) (MB)    (MI)  (FT/S)
SHEBOYGAN LKSHOR 1200   68     190/  8/  9 1007.3F
KEWAUNEE LKSHORE 1200   71     190/ 15/ 18 1004.4F
ALGOMA MARINA    1212          240/ 13/ 19   N/A
TWO RIVERS CG    1206   61                 1006.3      6   1
NORTHPORT PIER   1200   69     180/  4/  9 1003.7F
N MID LAKE BUOY  1150   69 68  190/ 14/ 17 1003.5F         2/ 4
S GREEN BAY BUOY 1200   68 65  230/ 10/ 16 1006.1F
STURGEON BAY CG  1151          190/  3     1006.0   3 1/2  2
CHAMBERS ISLAND  1200   69     190/  6/ 12 1004.1F
MENOMINEE LKSHOR 1200   69     220/ 10/ 14 1004.9F
$$



USA.gov is the U.S. government's official web portal to all federal, state and local government web resources and services.